metlocid,date_time,avg_rh,stddev_rh,min_rh,max_rh,n_rh,n_comments
FLMM,1/1/11,29.41327431,2.156467123,23.8,35.6,2260,2260
FLMM,2/1/11,25.5081101,2.660715268,19.1,33.6,2688,2688
FLMM,3/1/11,19.23155241,4.356893018,7.8,29.6,2976,2976
FLMM,4/1/11,16.39701388,6.66687711,0.4,31.1,2880,2880
FLMM,5/1/11,14.7093078,4.402239777,3.8,24.2,2976,2976
FLMM,6/1/11,14.89600694,4.010866785,2.5,25.2,2880,2880
FLMM,7/1/11,15.87711694,3.874763505,5.5,25.9,2976,2976
FLMM,8/1/11,16.89008736,6.125510162,0.4,28.6,2976,2976
FLMM,9/1/11,16.87875,5.649473788,0.4,25.8,2880,2880
FLMM,10/1/11,17.54274196,4.889242627,0.4,29.9,2976,2976
FLMM,11/1/11,27.00732638,3.010395056,14.8,34.6,2880,2880
FLMM,12/1/11,39.73471102,16.78752345,14.2,100,2976,1316
FLMM,1/1/12,53.59342402,20.48957381,11.6,99.2,2976,0
FLMM,2/1/12,58.17973782,25.37369404,15.63,100,2784,54
FLMM,3/1/12,57.45336694,20.31235114,11.02,97.7,2976,0
FLMM,4/1/12,64.54237849,19.54625686,16.84,98.73,2880,0
FLMM,5/1/12,65.17213712,26.25626528,12.49,99.1,2976,0
FLMM,6/1/12,54.758493,23.35404029,14.35,97.04,2880,0
FLMM,7/1/12,61.88391463,24.12802824,13.01,96.3,2976,0
FLMM,8/1/12,53.32148518,28.16740714,5.37,98.08,2976,0
FLMM,9/1/12,63.48925697,21.13665065,13.32,97.99,2880,0
FLMM,10/1/12,63.77912633,20.21275292,22.65,98.13,2976,0
FLMM,11/1/12,53.12035419,21.37851136,9.96,100,2880,27
FLMM,12/1/12,67.07249665,18.72730919,27.82,100,2976,75
FLMM,1/1/13,60.71742942,24.44554168,13.53,100,2976,25
FLMM,2/1/13,64.01653646,20.39318176,19.24,100,2688,5
FLMM,3/1/13,67.88204973,19.9103627,25.4,99.84,2976,0
FLMM,4/1/13,66.3334965,19.96636211,21.09,99.01,2880,0
FLMM,5/1/13,68.71826274,22.99963806,16.06,99.1,2976,0
FLMM,6/1/13,63.21526389,20.90713874,15.85,99.61,2880,0
FLMM,7/1/13,68.52419691,18.15107808,18.06,100,2976,3
FLMM,8/1/13,58.21874334,22.49963374,11.36,96.81,2976,0
FLMM,9/1/13,56.44451387,24.50679009,10.77,98.94,2880,0
FLMM,10/1/13,69.07387094,19.87111212,24.07,100,2976,4
FLMM,11/1/13,65.7259549,19.32299646,20.48,100,2880,18
FLMM,12/1/13,58.59588705,20.12609456,15.48,100,2976,69
FLMM,1/1/14,56.97675402,20.49705444,12.86,100,2976,44
FLMM,2/1/14,57.48469489,22.69023955,10.86,100,2688,6
FLMM,3/1/14,57.68513106,20.65165787,20.12,100,2976,2
FLMM,4/1/14,55.52112843,25.4162907,10.51,96,2880,0
FLMM,5/1/14,72.98399862,20.3174995,23.21,99.65,2976,0
FLMM,6/1/14,68.03361803,18.4676782,22.95,99.3,2880,0
FLMM,7/1/14,50.36702619,24.26144918,11.85,99.22,2976,0
FLMM,8/1/14,73.90214722,23.09739301,14.41,99.45,2976,0
FLMM,9/1/14,69.06380208,20.81398215,18.64,99.05,2880,0
FLMM,10/1/14,75.06422712,21.78644067,22.76,100,2976,4
FLMM,11/1/14,52.61322567,18.31851648,16.22,100,2880,7
FLMM,12/1/14,57.97267987,18.47854089,15.72,100,2974,7
FLMM,1/1/15,64.11064853,19.20053482,21.16,100,2976,165
FLMM,2/1/15,71.90833335,20.67832072,23.27,100,2688,200
FLMM,3/1/15,54.41031254,22.41229984,12.22,100,2976,36
FLMM,4/1/15,67.09123267,23.74044286,15.33,100,2880,26
FLMM,5/1/15,54.04686491,21.86150275,10.51,97.74,2976,0
FLMM,6/1/15,53.11258052,30.46782964,15.57,99.34,279,1771
FLMM,7/1/15,,,,,0,2634
FLMM,8/1/15,,,,,0,2976
FLMM,9/1/15,,,,,0,2384
FLMM,10/1/15,,,,,0,2625
FLMM,11/1/15,,,,,0,2259
FLMM,12/1/15,61.67412052,23.09506978,14.26,100,2820,223
FLMM,1/1/16,65.91340057,21.83114145,19.98,100,2976,75
FLMM,2/1/16,63.48867817,23.62816179,18.93,100,2784,240
FLMM,3/1/16,66.77625337,19.8321123,21.69,100,2976,121
FLMM,4/1/16,73.36015976,16.4943638,30.59,100,2880,0
FLMM,5/1/16,54.36012095,22.03144276,10.71,98.32,2976,0
FLMM,6/1/16,72.01505903,19.64536367,15.33,100,2880,82
FLMM,7/1/16,41.44972782,20.88686746,9.7,96.72,2976,0
FLMM,8/1/16,61.64371309,26.34767415,5.48,100,2976,36
FLMM,9/1/16,56.40446178,26.32116439,12.33,99.76,2880,0
FLMM,10/1/16,57.62573257,22.45627153,12.54,100,2976,22
FLMM,11/1/16,47.17671874,25.9490116,7.39,100,2880,57
FLMM,12/1/16,63.88755294,21.35153314,11.55,100,2975,61
FLMM,1/1/17,55.32180781,21.70388082,15.68,100,2976,84
FLMM,2/1/17,44.13293527,20.5640727,13.92,99.32,2688,0
FLMM,3/1/17,69.50238242,22.07472612,18.76,100,2976,199
FLMM,4/1/17,67.20027083,21.43743536,18.08,100,2880,31
FLMM,5/1/17,71.50670365,23.64346923,13.87,100,2976,40
FLMM,6/1/17,66.42610411,22.07433539,13.51,100,2880,31
FLMM,7/1/17,60.88926074,22.31560924,12.69,98.31,2976,0
FLMM,8/1/17,66.17973119,24.00044749,11.67,100,2976,3
FLMM,9/1/17,43.89218753,22.04292063,10.61,99.97,2880,0
FLMM,10/1/17,65.18921032,23.77257805,12.18,100,2976,41
FLMM,11/1/17,56.69514598,21.86127847,15.6,100,2878,51
FLMM,12/1/17,74.74733534,18.73712308,25.03,100,2976,239
FLMM,1/1/18,69.38720427,18.90004606,20.15,100,2976,181
FLMM,2/1/18,62.72471723,22.05883936,18.14,100,2688,102
FLMM,3/1/18,67.94349799,23.98709948,15.55,100,2976,87
FLMM,4/1/18,57.37161104,21.67243721,11.67,100,2880,18
FLMM,5/1/18,71.13048386,19.33693638,24.38,100,2976,28
FLMM,6/1/18,78.34977079,16.84305746,26.07,100,2880,93
FLMM,7/1/18,56.34896843,24.15566827,14.04,99.14,2976,0
FLMM,8/1/18,57.26460345,25.69601429,7.39,100,2976,29
FLMM,9/1/18,57.32956593,26.14351804,7.72,98.49,2880,0
FLMM,10/1/18,72.05608867,21.63744052,12.41,100,2976,3
FLMM,11/1/18,58.23338548,24.37939122,15.91,100,2880,102
FLMM,12/1/18,67.94300505,19.23138771,10.92,100,2975,13
FLMM,1/1/19,59.21583338,23.83386019,13.68,100,2976,177
FLMM,2/1/19,63.61767112,23.50298942,9.46,100,2688,116
FLMM,3/1/19,57.31314175,25.38905572,14.94,100,2976,99
FLMM,4/1/19,65.43679862,20.44288978,19,100,2880,12
FLMM,5/1/19,70.62012439,23.89698288,11.47,100,2976,43
FLMM,6/1/19,65.68196183,21.17901215,14.96,100,2880,1
FLMM,7/1/19,53.21760421,28.32872062,8.54,100,2976,17
FLMM,8/1/19,54.93841729,29.83986494,10.13,100,2976,3
FLMM,9/1/19,59.25954163,22.52103248,10.36,100,2880,1
FLMM,10/1/19,57.49759408,22.53626994,14.18,100,2976,2
FLMM,11/1/19,51.24784718,22.49697809,8.5,100,2880,33
FLMM,12/1/19,69.35815459,20.09093088,25.45,100,2975,527
FLMM,1/1/20,56.50613576,19.99329699,15.62,100,2976,2976
FLMM,2/1/20,66.56341956,22.63461486,18.96,100,2784,2784
FLMM,3/1/20,65.30356522,22.77465413,16.81,100,2976,2976
FLMM,4/1/20,57.73825694,19.75536894,14.96,100,2880,2880
FLMM,5/1/20,64.34868614,21.42840125,13.45,100,2976,2976
FLMM,6/1/20,73.47336467,20.09042774,20.19,100,2880,2880
FLMM,7/1/20,57.99266464,23.47050539,9.1,100,2976,2976
FLMM,8/1/20,79.71789988,17.095975,23.36,100,2976,2976
FLMM,9/1/20,56.04802082,26.15730921,8.99,100,2880,2880
FLMM,10/1/20,60.7665625,21.07491215,11.19,100,2976,2976
FLMM,11/1/20,53.24405906,17.50059543,20.4,100,2880,2880
FLMM,12/1/20,58.03630719,22.33820328,16.34,100,2976,2976
FLMM,1/1/21,60.08435816,21.54833189,15.67,100,2976,2976
FLMM,2/1/21,64.36207218,24.50522323,14.04,100,2688,2688
FLMM,3/1/21,70.90712363,22.03657848,20.04,100,2976,2976
FLMM,4/1/21,61.62272222,24.84772473,17.41,100,2880,2880
FLMM,5/1/21,69.07398519,18.50647989,21.27,99.57,2976,2976
FLMM,6/1/21,61.07199999,22.44251985,13.61,99.01,2880,2880
FLMM,7/1/21,62.45897514,25.61621303,12.27,98.93,2976,2976
FLMM,8/1/21,44.47104165,24.80017894,9.97,99.09,2976,2976
FLMM,9/1/21,68.78233329,23.00935286,11.24,100,2880,2880
FLMM,10/1/21,49.84536964,23.15280664,10.16,96.22,2976,2976
FLMM,11/1/21,63.85396528,22.1207088,14.2,100,2880,2880
FLMM,12/1/21,58.32569414,17.13576706,18.97,100,2975,2975
FLMM,1/1/22,69.43970434,17.7530492,23.35,100,2976,2976
FLMM,2/1/22,65.81308037,20.99567416,13.81,100,2688,2688
FLMM,3/1/22,56.76610215,20.87978174,11.89,99.21,2976,2976
FLMM,4/1/22,66.94026391,22.13548296,23.73,100,2880,2880
FLMM,5/1/22,72.54996635,19.2734312,12.67,99.68,2976,2976
FLMM,6/1/22,60.89779166,24.17264501,11.42,100,2880,2880
FLMM,7/1/22,60.12661959,23.64575855,5.42,100,2976,2976
FLMM,8/1/22,61.80303089,22.24971222,16.99,99.62,2976,2976
FLMM,9/1/22,61.81012848,20.10997459,17.95,97.3,2880,2880
FLMM,10/1/22,57.4765759,23.09572715,12.5,97.96,2976,2976
FLMM,11/1/22,52.83979513,23.2655256,6.37,100,2880,2880
FLMM,12/1/22,52.56312141,19.04075171,14.57,94.46,1762,1762